Dewpoint
48 43 39 40 41 39 35 32 31 31 33 36 35 34 34 33 32 32 33 35 35 36 39 40 42 50 53 56 57 58 59 60 60 61 61 61 60 60 59 59 59 59 58 58
42 39 39 39 38 38 37 34 33 32 35 35 35 34 34 32 31 32 33 33 33 34 32 34 39 44 52 54 56 57 58 59 60 61 61 61 61 60 60 60 60 60 59 58
39 37 39 37 37 37 36 35 32 32 33 35 35 33 32 33 32 31 31 33 34 34 34 32 31 36 48 53 55 57 58 58 59 60 61 62 61 61 60 60 60 60 59 59
40 39 37 37 35 35 33 35 35 34 33 31 32 26 30 30 29 30 28 31 31 32 32 33 34 35 38 48 53 56 57 58 58 59 60 61 60 60 60 60 60 60 60 60
38 38 37 37 36 36 34 35 35 36 34 34 33 29 28 29 28 29 28 29 31 31 33 35 37 40 41 43 45 51 53 55 57 58 59 60 60 60 60 60 60 60 60 60
39 43 42 39 37 37 39 38 37 37 36 31 31 29 26 26 27 27 28 28 29 34 35 35 38 39 39 41 45 46 47 49 53 56 57 58 60 60 60 59 59 59 60 60
38 38 40 41 40 40 40 37 31 30 29 28 30 30 27 27 27 27 28 28 30 33 35 36 33 33 35 37 39 42 45 47 47 52 54 56 58 60 60 59 59 59 59 59
32 30 36 40 39 36 38 37 30 25 26 24 27 23 24 27 28 29 29 30 31 32 32 31 31 32 33 36 37 37 40 43 45 46 51 55 56 58 60 60 59 59 58 58
32 32 38 38 38 39 37 35 38 33 28 24 25 25 26 27 25 28 28 30 31 31 32 31 31 31 33 35 36 36 36 39 43 45 47 50 54 56 57 59 59 59 59 58
36 31 38 38 39 40 37 39 32 33 25 20 19 20 19 24 28 28 29 29 31 31 31 30 31 32 34 35 36 36 36 36 38 42 45 48 50 54 56 57 58 58 58 58
35 33 35 40 38 36 37 36 36 34 32 23 18 16 23 26 28 29 30 30 27 26 28 30 32 32 32 34 35 36 36 35 37 40 43 47 50 53 54 55 57 57 58 58
36 33 31 33 37 38 38 34 33 29 26 28 27 24 26 27 30 30 27 26 26 28 30 30 29 31 33 34 35 36 36 36 37 39 47 47 47 51 54 55 55 56 57 58
35 35 29 30 35 37 36 34 32 32 34 28 24 20 27 28 30 30 25 27 26 28 30 31 33 34 33 33 34 35 36 36 37 38 42 51 51 51 52 54 55 56 56 57
36 33 29 22 28 33 35 35 35 35 31 29 27 25 25 26 27 27 27 28 27 26 32 32 32 32 33 34 34 35 36 37 37 38 39 43 52 54 54 55 55 56 56 56
34 29 30 28 27 34 33 34 35 35 34 29 29 28 27 26 28 26 27 29 26 31 30 31 32 33 32 33 34 35 36 37 38 38 38 39 42 51 51 50 52 52 51 53
35 30 29 27 28 30 29 33 35 35 34 33 31 27 28 29 26 27 29 31 30 29 29 30 30 30 30 32 33 33 35 36 37 38 38 39 40 41 43 46 45 46 46 46
34 33 30 26 29 28 21 28 30 31 33 32 30 30 31 31 29 29 29 28 27 26 26 26 28 29 29 32 33 32 34 35 35 37 39 39 39 39 40 40 40 40 42 42
35 33 32 22 30 21 23 26 30 30 31 33 32 32 28 27 28 26 24 23 23 24 23 24 25 26 27 31 31 31 33 33 34 37 38 37 36 35 36 37 39 39 39 39
35 32 27 25 25 23 21 20 25 25 24 23 24 23 22 23 27 23 20 21 21 21 21 23 24 25 25 27 28 28 30 30 32 34 35 35 35 35 36 36 38 38 37 37
36 33 27 25 19 12 15 20 23 27 22 21 21 20 20 22 18 23 18 18 17 18 19 21 22 21 23 24 25 26 28 28 30 31 31 33 34 35 36 37 36 34 34 33
32 31 27 22 18 22 23 25 24 15 19 20 18 17 16 17 17 16 16 14 15 17 19 19 18 18 20 21 23 24 26 26 29 29 30 32 34 35 36 35 33 33 33 33
28 28 26 27 25 18 18 21 18 18 17 14 13 13 12 12 12 13 11 12 12 14 15 16 16 17 17 18 20 20 20 23 24 25 27 31 34 34 34 34 32 33 33 33
22 27 25 25 23 15 13 12 11 12 12 9 8 8 8 8 7 7 8 9 12 13 13 14 15 14 14 16 16 16 16 19 20 21 23 30 33 33 33 33 33 32 33 33
24 23 24 22 22 15 11 8 6 8 6 5 5 5 5 4 5 5 6 9 10 11 11 13 11 11 10 11 12 12 13 16 16 17 21 28 32 32 32 32 32 33 33 33
16 19 20 19 19 17 10 6 6 5 3 2 2 2 2 3 3 4 7 8 9 9 10 9 9 8 8 8 8 9 11 12 13 15 19 26 30 31 29 29 30 30 31 33
7 5 16 17 8 10 6 4 2 1 1 1 0 1 1 3 3 4 6 7 7 6 6 6 5 5 5 5 6 7 8 10 11 14 20 26 28 28 28 29 30 33 33 34
Lifted_Index
1 2 2 2 1 1 1 1 1 1 1 2 2 3 4 4 4 4 4 4 4 4 3 2 2 2 1 0 -0 -0 -0 -0 -0 0 1 1 1 2 2 2 2 3 3 3
1 2 2 1 1 1 1 1 1 1 1 2 2 3 4 4 4 4 4 4 4 4 3 3 3 3 2 1 0 0 -0 -0 -0 0 0 1 1 1 1 2 2 2 3 3
1 1 1 1 1 0 0 1 1 1 1 2 2 3 4 4 5 4 4 5 4 4 4 4 4 4 3 2 1 1 0 0 -0 -0 -0 -0 0 0 0 1 1 2 2 2
1 1 1 1 1 1 1 1 1 1 1 1 2 2 3 4 4 4 4 4 4 4 4 4 4 4 4 3 3 2 1 1 0 -0 -0 -0 -0 -0 -0 0 1 1 1 1
1 1 0 1 1 1 1 1 1 0 0 1 1 2 2 3 4 4 4 4 4 4 4 4 4 5 5 5 5 4 3 2 1 1 0 -0 -1 -0 -0 0 1 1 1 1
0 0 0 0 0 0 0 0 0 0 0 1 1 2 2 3 4 4 4 4 4 4 4 4 5 5 6 6 6 6 5 4 3 2 1 0 -0 -1 -0 0 1 1 1 1
0 0 0 0 0 0 0 -0 -0 -0 -0 1 1 2 2 3 3 3 3 3 3 3 4 5 6 6 7 7 7 7 7 6 5 4 2 1 0 -0 -0 0 0 1 1 1
1 1 1 1 1 0 0 0 -0 0 0 1 1 2 3 3 3 3 3 3 3 3 4 5 6 7 7 7 7 7 7 7 7 6 4 3 2 1 0 0 0 1 1 1
1 1 1 1 1 1 0 0 0 0 0 1 1 2 2 3 3 3 3 3 3 3 4 5 6 6 7 8 8 8 8 8 8 7 6 5 3 2 1 0 0 1 1 1
0 0 0 0 1 1 1 1 1 1 0 0 1 2 2 2 2 2 2 3 3 4 4 5 6 6 7 8 8 8 8 8 8 9 8 6 5 3 2 1 1 1 1 1
-0 -0 -0 -0 0 1 1 1 1 1 1 0 1 1 2 1 1 2 2 2 3 4 5 6 6 7 7 7 8 8 8 8 8 9 9 8 6 5 3 2 2 1 1 1
-0 -0 -0 -0 -0 0 1 1 1 1 1 1 1 1 1 1 1 1 1 2 3 4 5 6 6 7 7 7 7 8 8 8 8 8 9 8 7 6 4 3 2 2 2 1
-0 -0 -0 -0 -0 0 0 0 1 0 0 1 1 1 1 1 1 1 1 1 2 4 5 6 6 7 8 8 7 7 8 8 8 8 8 8 6 5 4 3 3 2 2 2
-0 -0 -0 -0 -0 -0 -0 -0 -0 -0 -0 0 1 1 1 0 0 1 1 1 2 4 5 6 7 7 8 8 8 7 7 8 8 8 8 8 6 5 4 3 3 2 2 2
-0 -0 -0 -0 -0 -0 -1 -1 -1 -1 -0 0 1 1 0 0 0 1 1 2 3 4 5 6 7 7 8 8 8 7 7 7 7 7 7 7 7 6 5 4 4 3 3 3
-1 -0 -0 -0 -0 -0 -0 -1 -1 -1 -0 -0 1 1 0 0 0 1 2 3 3 4 5 6 7 7 7 8 7 7 7 7 6 6 6 6 6 6 6 6 5 4 4 4
-0 -0 -0 0 0 0 0 0 -0 -0 -0 -0 0 1 0 0 1 2 2 3 4 5 6 7 7 8 8 8 8 8 8 7 6 5 5 5 5 5 6 6 6 5 5 5
0 0 0 1 1 1 1 1 1 0 0 0 0 1 1 1 1 2 3 4 5 7 7 8 8 9 9 9 9 9 9 8 7 6 5 5 5 5 5 5 5 5 5 5
1 1 1 1 1 1 2 2 1 1 1 1 1 2 2 2 2 3 3 5 6 8 8 9 9 9 9 9 10 10 9 9 8 7 5 5 4 4 4 5 5 5 5 5
1 1 1 1 2 2 2 2 2 2 2 2 2 3 3 3 3 4 5 6 7 8 8 8 8 8 8 9 9 9 9 9 8 7 6 5 5 5 5 5 5 5 5 5
1 1 1 1 2 2 2 2 2 2 2 3 3 4 4 4 5 6 6 7 7 8 8 8 8 8 8 9 9 9 9 9 9 8 7 6 6 6 6 6 6 6 5 5
1 1 1 2 2 2 2 2 2 3 3 3 4 5 5 5 6 6 7 7 7 7 7 7 8 8 8 9 9 9 9 9 9 8 7 7 6 7 7 7 7 6 6 5
2 2 1 1 1 1 2 2 3 4 4 4 5 5 5 6 6 6 7 7 7 7 7 7 8 8 8 9 10 10 10 10 9 8 8 7 7 7 7 7 7 7 7 6
2 2 1 1 1 1 2 3 4 5 5 5 5 6 6 6 6 6 6 7 7 8 8 9 8 8 8 10 10 11 11 11 10 9 8 8 7 8 8 9 9 8 8 8
2 2 1 1 2 2 3 4 5 5 5 5 6 6 6 6 7 7 7 8 9 10 10 11 10 10 10 11 12 12 13 13 12 10 9 9 9 9 10 10 10 10 10 10
2 2 2 2 2 3 4 5 5 5 5 5 5 6 7 7 7 8 9 10 11 12 12 12 12 12 12 12 13 14 15 14 13 11 10 10 11 11 12 12 11 11 11 10